{"data":{"norad_id":58135,"epoch":"2026-09-20T07:35:39.947712Z","epoch_age_seconds":156295,"freshness":"FRESH","line1":"1 58135U 23162T   26263.31643458  .00000433  00000+0  25281-4 0  9990","line2":"2 58135  43.0030 113.2550 0001888 251.4889 108.5758 15.27578285162073","mean_motion":15.27578285,"eccentricity":0.0001888,"inclination_deg":43.003,"raan_deg":113.255,"arg_perigee_deg":251.4889,"mean_anomaly_deg":108.5758,"bstar":2.5281e-5,"rev_number":16207,"period_min":94.266854546181,"perigee_km":481.75883846694,"apogee_km":484.34962427591,"semimajor_km":6861.1912313714,"source":"CELESTRAK","updated_at":"2026-09-21T09:00:33.794112Z"}}